EW1736 Weather Reports


Display with metric or nautical units.
time (UTC)temp
F
wind
direction
speed
MPH
gust
MPH
rain 1hr
in
rain 24hr
in
rain mn
in
humidity
%
barometer
mb
20260905150817 52 313 6.0 10.0 0.00 0.00 0.00 80 1017.2
20260905145314 52 321 5.0 10.0 0.00 0.00 0.00 79 1017.1
20260905143813 53 336 5.0 13.0 0.00 0.00 0.00 78 1017.2
20260905142306 54 288 10.0 13.0 0.00 0.00 0.00 78 1017.5
20260905140804 53 252 9.0 16.0 0.00 0.00 0.00 78 1017.6
20260905135301 54 0 11.0 19.0 0.00 0.00 0.00 77 1017.9
20260905133757 54 250 13.0 18.0 0.00 0.00 0.00 77 1018.0
20260905132955 53 261 11.0 14.0 0.00 0.00 0.00 78 1018.0
20260905131443 53 235 6.0 9.0 0.00 0.00 0.00 77 1018.2
20260905125250 53 282 6.0 11.0 0.00 0.00 0.00 77 1018.4
20260905123747 53 274 5.0 7.0 0.00 0.00 0.00 77 1018.4
20260905122247 53 313 4.0 5.0 0.00 0.00 0.00 77 1018.6
20260905120741 53 326 2.0 7.0 0.00 0.00 0.00 76 1018.6
20260905115228 53 302 4.0 8.0 0.00 0.00 0.00 76 1018.6
20260905113724 53 253 4.0 7.0 0.00 0.00 0.00 76 1018.7
20260905112224 53 247 2.0 7.0 0.00 0.00 0.00 75 1018.8
20260905111432 53 246 3.0 8.0 0.00 0.00 0.00 75 1018.7
20260905105917 53 276 6.0 8.0 0.00 0.00 0.00 75 1018.8
20260905103717 54 272 5.0 12.0 0.00 0.00 0.00 74 1018.7
20260905102213 54 280 9.0 14.0 0.00 0.00 0.00 74 1018.8
20260905100712 55 240 11.0 15.0 0.00 0.00 0.00 74 1019.0
20260905095206 55 273 9.0 15.0 0.00 0.00 0.00 74 1018.7
20260905093702 55 267 11.0 15.0 0.00 0.00 0.00 73 1018.7
20260905092202 55 270 11.0 17.0 0.00 0.00 0.00 73 1018.7
20260905090700 54 269 6.0 10.0 0.00 0.00 0.00 72 1019.0
20260905085905 54 273 7.0 9.0 0.00 0.00 0.00 71 1019.0
20260905083655 54 264 3.0 7.0 0.00 0.00 0.00 69 1019.2
20260905082844 54 255 2.0 6.0 0.00 0.00 0.00 68 1018.6
20260905080652 55 250 3.0 9.0 0.00 0.00 0.00 67 1018.1
20260905075146 55 229 6.0 9.0 0.00 0.00 0.00 66 1017.9
20260905073646 55 235 5.0 8.0 0.00 0.00 0.00 66 1017.8
20260905072142 55 266 4.0 9.0 0.00 0.00 0.00 66 1017.5
20260905070638 56 290 2.0 5.0 0.00 0.00 0.00 67 1017.5
20260905065138 56 321 0.0 3.0 0.00 0.00 0.00 66 1017.7
20260905063634 57 259 3.0 9.0 0.00 0.00 0.00 65 1017.8
20260905062136 57 258 6.0 14.0 0.00 0.00 0.00 64 1017.7
20260905060630 58 265 9.0 13.0 0.00 0.00 0.00 63 1017.6
20260905055827 58 254 10.0 15.0 0.00 0.00 0.00 61 1017.5
20260905053626 60 268 9.0 13.0 0.00 0.01 0.00 61 1017.4
20260905052122 60 280 9.0 21.0 0.00 0.02 0.00 60 1017.3
20260905050624 61 0 9.0 17.0 0.00 0.02 0.00 56 1017.4
20260905045823 62 221 13.0 23.0 0.00 0.02 0.00 55 1017.5
20260905043618 62 234 12.0 18.0 0.00 0.02 0.00 54 1017.2
20260905042114 62 319 15.0 25.0 0.00 0.02 0.00 55 1017.3
20260905040613 62 270 15.0 27.0 0.00 0.02 0.00 54 1017.1
20260905035110 62 272 19.0 25.0 0.00 0.02 0.00 54 1017.0
20260905034307 63 0 14.0 21.0 0.00 0.02 0.00 56 1017.1
20260905032812 64 241 14.0 18.0 0.00 0.02 0.00 51 1017.1
20260905031301 64 251 13.0 20.0 0.00 0.02 0.00 54 1017.3
20260905025057 64 248 12.0 20.0 0.00 0.02 0.00 51 1017.1
20260905024242 63 243 12.0 18.0 0.00 0.02 0.00 54 1017.3
20260905022054 64 234 11.0 17.0 0.00 0.02 0.00 52 1017.4
20260905020550 64 233 13.0 17.0 0.00 0.02 0.00 52 1017.4
20260905015044 63 250 8.0 18.0 0.00 0.02 0.00 55 1017.6
20260905013542 63 246 13.0 21.0 0.00 0.02 0.00 54 1017.8
20260905012736 65 232 11.0 16.0 0.00 0.02 0.00 50 1017.8
20260905010536 64 233 11.0 19.0 0.00 0.02 0.00 51 1017.9
20260905005725 64 233 11.0 20.0 0.00 0.02 0.00 53 1018.1
20260905003532 64 213 13.0 18.0 0.00 0.02 0.00 53 1018.1
20260905002723 64 217 9.0 18.0 0.00 0.02 0.00 54 1018.2
20260905000528 63 242 11.0 18.0 0.00 0.02 0.00 53 1018.3
20260904235720 63 241 13.0 23.0 0.00 0.02 0.00 52 1018.4
20260904233524 63 224 11.0 20.0 0.00 0.02 0.00 52 1018.6
20260904232709 63 239 9.0 16.0 0.00 0.02 0.00 50 1018.6
20260904230515 63 210 9.0 16.0 0.00 0.02 0.00 49 1018.6
20260904225015 63 269 6.0 15.0 0.00 0.02 0.00 48 1018.4
20260904224219 63 191 3.0 9.0 0.00 0.02 0.00 53 1018.4
20260904222011 62 296 3.0 16.0 0.00 0.02 0.00 52 1018.3
20260904220507 62 250 13.0 16.0 0.00 0.02 0.00 53 1018.5
20260904215003 61 252 7.0 23.0 0.00 0.02 0.00 55 1018.3
20260904214200 60 237 18.0 32.0 0.00 0.02 0.00 59 1017.9
20260904211954 59 231 21.0 31.0 0.00 0.02 0.00 63 1017.8
20260904211157 58 269 20.0 31.0 0.00 0.02 0.00 66 1017.8
20260904204945 57 229 26.0 39.0 0.00 0.02 0.00 69 1017.5
20260904203446 56 228 24.0 33.0 0.00 0.02 0.00 70 1017.4
20260904201941 56 239 27.0 35.0 0.00 0.02 0.00 69 1017.5
20260904200441 55 232 22.0 33.0 0.00 0.02 0.00 71 1017.7
20260904194937 54 221 21.0 32.0 0.00 0.02 0.00 73 1017.7
20260904193438 54 246 23.0 34.0 0.00 0.02 0.00 75 1017.6
20260904191935 53 236 22.0 33.0 0.00 0.02 0.00 76 1017.6
20260904190434 52 250 23.0 30.0 0.00 0.02 0.00 77 1017.4
20260904184929 52 257 21.0 30.0 0.00 0.02 0.00 77 1017.2
20260904183425 52 242 19.0 26.0 0.00 0.02 0.00 77 1017.4
20260904182619 52 240 16.0 18.0 0.00 0.02 0.00 77 1017.5
20260904181125 52 250 15.0 18.0 0.00 0.02 0.00 76 1017.6
20260904175619 53 242 14.0 19.0 0.00 0.02 0.00 75 1017.6
20260904173417 53 247 15.0 18.0 0.00 0.02 0.00 75 1017.4
20260904171912 53 258 13.0 17.0 0.00 0.02 0.00 75 1017.4
20260904170413 53 251 11.0 14.0 0.00 0.02 0.00 74 1017.4
20260904164909 53 252 11.0 13.0 0.00 0.02 0.00 73 1017.2
20260904163404 53 254 9.0 12.0 0.00 0.02 0.00 72 1017.2
20260904161900 54 263 10.0 12.0 0.00 0.02 0.00 70 1016.9
20260904160357 55 257 10.0 20.0 0.00 0.02 0.00 68 1016.6
20260904155546 55 231 10.0 14.0 0.00 0.02 0.00 67 1016.4
20260904153354 55 236 8.0 14.0 0.00 0.02 0.00 66 1016.2
20260904151848 55 250 8.0 13.0 0.00 0.02 0.00 67 1016.4